Location: Linz
(48.3300°N, 14.3000°E)
Time: 20:24:32
(UTC+02:00)

Vanguard 2 Rocket - All Passes

Search period start: 22 April 2018 00:00
Search period end: 02 May 2018 00:00
Orbit: 553 x 3328 km, 32.9° (Epoch: 21 April)

Date Brightness Start Highest point End Pass type
(mag) Time Alt. Az. Time Alt. Az. Time Alt. Az.
22 Apr - 02:55:20 10° SSE 03:04:29 17° SE 03:14:54 10° E visible
22 Apr - 05:03:00 10° SSW 05:18:25 38° SSE 05:35:33 10° E visible
22 Apr - 07:16:15 10° WSW 07:34:30 49° S 07:51:33 10° ESE daylight
22 Apr - 09:32:36 10° W 09:50:37 42° SSW 10:04:49 10° SE daylight
22 Apr - 11:52:11 10° W 12:04:32 22° SW 12:14:12 10° S daylight
23 Apr - 04:04:08 10° SSW 04:17:36 31° SE 04:33:34 10° E visible
23 Apr - 06:15:50 10° SW 06:33:01 47° SSE 06:50:52 10° ESE daylight
23 Apr - 08:31:00 10° WSW 08:49:29 47° SSW 09:05:20 10° SE daylight
23 Apr - 10:49:01 10° W 11:04:28 30° SW 11:16:31 10° SSE daylight
24 Apr - 03:06:10 10° S 03:17:14 24° SE 03:30:43 10° E visible
24 Apr - 05:15:59 10° SW 05:31:41 43° SSE 05:49:40 10° E visible
24 Apr - 07:29:55 10° WSW 07:48:02 49° S 08:05:17 10° ESE daylight
24 Apr - 09:46:39 10° W 10:03:54 37° SSW 10:17:58 10° SSE daylight
24 Apr - 12:08:00 10° W 12:17:17 16° SW 12:25:10 10° SSW daylight
25 Apr - 02:09:40 10° SSE 02:17:21 16° SE 02:26:26 10° E visible
25 Apr - 04:16:46 10° SSW 04:30:42 37° SSE 04:47:54 10° E visible
25 Apr - 06:29:22 10° WSW 06:46:31 49° S 07:04:43 10° ESE daylight
25 Apr - 08:44:55 10° W 09:02:53 43° SSW 09:18:42 10° SE daylight
25 Apr - 11:03:47 10° W 11:17:23 24° SW 11:28:36 10° S daylight
26 Apr - 03:18:14 10° SSW 03:30:09 30° SE 03:45:30 10° E visible
26 Apr - 05:29:21 10° SW 05:45:06 47° SSE 06:03:35 10° ESE daylight
26 Apr - 07:43:45 10° WSW 08:01:32 47° SSW 08:18:49 10° SE daylight
26 Apr - 10:00:59 10° W 10:17:00 31° SW 10:30:35 10° SSE daylight
26 Apr - 12:29:22 10° WSW 12:29:54 10° SW 12:30:26 10° SW daylight
27 Apr - 02:20:36 10° S 02:30:06 22° SE 02:42:18 10° E visible
27 Apr - 04:29:54 10° SW 04:43:58 42° SSE 05:01:56 10° E visible
27 Apr - 06:43:07 10° WSW 07:00:03 49° S 07:18:21 10° ESE daylight
27 Apr - 08:59:02 10° W 09:16:09 38° SSW 09:31:41 10° SSE daylight
27 Apr - 11:19:34 10° W 11:30:09 17° SW 11:39:26 10° SSW daylight
28 Apr - 01:24:39 10° SSE 01:30:32 14° SE 01:37:32 10° ESE visible
28 Apr - 03:31:01 10° SSW 03:43:15 36° SSE 03:59:46 10° E visible
28 Apr - 05:43:00 10° WSW 05:58:35 48° S 06:17:20 10° ESE daylight
28 Apr - 07:57:45 10° W 08:14:57 43° SSW 08:32:02 10° SE daylight
28 Apr - 10:15:49 10° W 10:29:56 25° SW 10:42:28 10° S daylight
29 Apr - 02:32:48 10° SSW 02:43:02 28° SE 02:57:04 10° E visible
29 Apr - 04:43:23 10° SW 04:57:22 46° SSE 05:15:46 10° ESE visible
29 Apr - 06:57:02 10° WSW 07:13:34 47° S 07:31:45 10° SE daylight
29 Apr - 09:13:27 10° W 09:29:17 32° SSW 09:44:07 10° SSE daylight
29 Apr - 11:38:47 10° WSW 11:42:47 11° SW 11:46:38 10° SW daylight
30 Apr - 01:35:30 10° S 01:43:19 20° SE 01:53:37 10° E visible
30 Apr - 03:44:16 10° SW 03:56:33 40° SSE 04:13:45 10° E visible
30 Apr - 05:56:50 10° WSW 06:12:09 48° S 06:30:52 10° ESE daylight
30 Apr - 08:11:57 10° W 08:28:17 38° SSW 08:44:51 10° SSE daylight
30 Apr - 10:31:39 10° W 10:42:44 18° SW 10:53:04 10° SSW daylight
01 May - 00:40:29 10° SE 00:44:04 12° SE 00:48:08 10° ESE visible
01 May - 02:45:42 10° SSW 02:56:10 34° SSE 03:11:19 10° E visible
01 May - 04:57:06 10° WSW 05:10:55 47° S 05:29:25 10° ESE visible
01 May - 07:11:07 10° W 07:27:02 42° SSW 07:44:49 10° SE daylight
01 May - 09:28:22 10° W 09:42:17 25° SW 09:55:45 10° S daylight
